Regional Weather Roundup
Issued by NWS San Diego, CA

Home | Current Version | Previous Version | Text Only | Print | Product List | Glossary On
Versions: 1 2 3 4 5 6 7 8 9 10 11 12 13 14 15 16 17 18 19 20 21 22 23 24 25 26 27 28 29 30 31 32 33 34 35 36 37 38 39 40 41 42 43 44 45 46 47 48 49 50
000
ASUS46 KSGX 011911
RWRSGX

SAN DIEGO HOURLY WEATHER ROUNDUP
NATIONAL WEATHER SERVICE SAN DIEGO CA
1200 PM PDT SAT AUG 01 2015

NOTE: "FAIR" INDICATES FEW OR NO CLOUDS BELOW 12,000 FEET WITH NO
SIGNIFICANT WEATHER AND/OR OBSTRUCTIONS TO VISIBILITY.

CAZ042-043-060-061-PZZ750-775-012000-

GREATER SAN DIEGO AREA

CITY           SKY/WX    TMP DP  RH WIND       PRES   REMARKS
LINDBERGH FLD  PTSUNNY   75  63  66 NW8       29.98F
POINT LOMA       N/A     76  64  65 W13         N/A
NATIONAL CITY    N/A     76  67  72 W3        29.97F
CHULA VISTA      N/A     76  67  73 W2        29.90F
IMPERIAL BEACH CLOUDY   N/A N/A N/A W9        29.97F
BROWN FIELD    MOSUNNY   75  64  68 VRB3      29.97F
MIRAMAR MCAS   MOSUNNY   78  63  59 VRB5      29.97F
MONTGOMERY FLD MOSUNNY   77  63  61 SW8       29.97F

$$

NORTH SAN DIEGO COUNTY

CITY           SKY/WX    TMP DP  RH WIND       PRES   REMARKS
CAMP PENDLETON SUNNY     77  63  61 SW7       29.96F
OCEANSIDE AP   PTSUNNY   76  64  66 W8        29.96S
OCEANSIDE HBR    N/A     71  66  83 W12       29.99F
CARLSBAD       CLOUDY    72  65  78 W7        29.96F
DEL MAR          N/A     71  67  85 W3        29.99F
FALLBROOK        N/A     81  68  63 SW6       29.95S
ESCONDIDO        N/A     83  68  61 W7        29.96F
POWAY            N/A     78  67  68 W3        29.97F

$$

EAST SAN DIEGO COUNTY

CITY           SKY/WX    TMP DP  RH WIND       PRES   REMARKS
RAMONA         SUNNY     78  63  59 NW7       29.99F
SANTEE LAKES     N/A     77  67  72 CALM      29.95F
JAMUL            N/A     77  66  67 W2        29.94F
DESCANSO N       N/A     87  53  31 CALM      29.80F
CAMPO            N/A     92  47  21 SW13      29.98F

$$

ORANGE COUNTY AND THE LOS ANGELES BASIN

CITY           SKY/WX    TMP DP  RH WIND       PRES   REMARKS
JOHN WAYNE AP  MOSUNNY   77  63  61 SW7       29.96F
LAKE FOREST FR   N/A     81  64  55 CALM      29.86F
SANTA ANA        N/A     83  66  56 CALM      29.90F
HUNTINGTON BCH   N/A     76  66  70 SW3       29.99S
LOS ALAMITOS   MOSUNNY   77  65  65 VRB7      29.96F
FULLERTON      SUNNY     81  63  54 S7        29.95F
LONG BEACH     SUNNY     77  63  61 S8        29.96F
L.A. AP        MOSUNNY   74  63  68 SW10      29.97F
L.A. DOWNTOWN  SUNNY     83  64  52 CALM      29.95F

$$

THE INLAND EMPIRE

CITY           SKY/WX    TMP DP  RH WIND       PRES   REMARKS
CORONA         SUNNY     83  64  52 W8        29.95F
CHINO          MOSUNNY   88  63  43 VRB3      29.96F
ONTARIO        MOSUNNY   85  61  44 W8        29.96F
SAN BERNARDINO MOSUNNY   84  57  39 SW8       29.97  HAZE
RIVERSIDE AP   SUNNY     83  60  45 VRB7      29.96F
MORENO VALLEY    N/A     87  70  55 W5        29.95S
MARCH ARB      SUNNY     87  60  40 NW9       29.97F
HORSETHIEF CYN   N/A     85  61  44 NW5       29.95F
PERRIS           N/A     88  61  40 NW3       29.97F
MENIFEE          N/A     90  65  43 CALM      30.02F
FRENCH VALLEY  FAIR      84  63  48 S7        29.97F
TEMECULA         N/A     84  64  50 SW6       29.92F

$$

SAN BERNARDINO AND RIVERSIDE COUNTY MOUNTAINS

CITY           SKY/WX    TMP DP  RH WIND       PRES   REMARKS
BIG BEAR AP    SUNNY     75  37  25 NE9       30.32S
ANGELUS OAKS     N/A     79  48  33 CALM      29.85F
PINE COVE        N/A     78  44  29 W1        29.91F

$$

SOUTHERN DESERT INCLUDING THE COACHELLA VALLEY

CITY           SKY/WX    TMP DP  RH WIND       PRES   REMARKS
PALM SPRINGS   SUNNY    104  47  14 E9        29.87F HX 100
THERMAL        SUNNY    104  54  19 SE10      29.80F HX 102
BLYTHE         PTSUNNY  100  60  26 NE12      29.88F HX 100
IMPERIAL AP    SUNNY    104  53  18 NE6       29.82F HX 102
EL CENTRO NAS  MOSUNNY  106  49  14 VRB6      29.83F HX 103
YUMA AZ        MOSUNNY  106  53  17 NE7       29.83F HX 104
MEXICALI       PTSUNNY  104  50  16 E10       29.84S HX 101

$$

UPPER DESERT

CITY           SKY/WX    TMP DP  RH WIND       PRES   REMARKS
VICTORVILLE AP SUNNY     93  34  12 CALM      30.04F
HESPERIA         N/A     94  42  17 SE3       29.98F
APPLE VALLEY     N/A     95  34  12 CALM      30.04F
PALMDALE       SUNNY     94  31  10 E6        30.01F
LANCASTER      SUNNY     95  34  11 VRB5      30.00F
EDWARDS AFB    MOSUNNY   95  31  10 VRB7      29.98F
DAGGETT        SUNNY     97  36  12 W9        29.97F
29 PALMS N     MOSUNNY   96  47  18 SE6       30.04F
NEEDLES        CLOUDY    89  63  41 SE8       29.97S

$$

REGIONAL REPORTS

CITY           SKY/WX    TMP DP  RH WIND       PRES   REMARKS
SANTA BARBARA  MOSUNNY   72  63  73 S8        29.97F
SANDBERG       SUNNY     88  29  12 SW12G20   30.17F
LAS VEGAS NV   LGT RAIN  80  65  59 S9        30.01R
PHOENIX AZ     MOSUNNY   95  64  35 CALM      29.89F HX  97
TIJUANA        PTSUNNY   75  59  57 W7        29.99
ENSENADA NW      N/A     73  32  22 N7        29.94F

$$

OFFSHORE ISLANDS

CITY           SKY/WX    TMP DP  RH WIND       PRES   REMARKS
CATALINA ARPT  SUNNY     70  59  68 W6        30.03S
SAN NICOLAS IS FAIR     N/A N/A N/A NW20      29.99F

$$

MARINE AND OFFSHORE BUOY REPORTS

STATION/POSITION SKY/WX   TEMP    WIND        PRES    SWELL
                          AIR SEA DIR/SP/G            HT/PER/DIR
                          (F)     (DEG/KT/KT) (MB)    (FT/S/D)
TANNER BANKS               67 68  310/ 14/ 16 1015.8F   3/250/14
S CLEMENTE BASIN           67 70  300/ 10/ 12 1015.0F   2/220/15
SAN NICOLAS IS.               66                N/A     2/220/13
SO. S. ROSA ISLA           64 68  320/ 17/ 21 1014.7S   2/13
W. S. BARBARA CH           63 66  320/ 19/ 21 1014.5S   3/250/15
M. S. BARBARA CH           66 69  220/  4/  6 1015.5F
S. MONICA BASIN            69 74  170/  4/  6 1014.9F   2/230/14
S PEDRO CHANNEL               71                N/A     2/180/14
DANA POINT                    71                N/A     2/200/14
OCEANSIDE OFFSHR              72                N/A     2/210/14
TORREY PINES OTR              73                N/A     2/230/15
LA JOLLA 1                 70 65  320/  6/  7 1015.1S
MISSION BAY BUOY              71                N/A     2/220/13
SAN DIEGO BAY                 75              1015.7S
POINT LOMA SOUTH              71                N/A     2/190/15

$$



USA.gov is the U.S. government's official web portal to all federal, state and local government web resources and services.